www.pogodaiklimat.ru

Погода и климат >> Архив погоды >> Великобритания >> Мидл Уоллоп


ПОГОДА в Мидл Уоллоп

  • Прогноз погоды в Мидл Уоллоп
  • Монитор погоды в Мидл Уоллоп

АРХИВ ПОГОДЫ в Мидл Уоллоп

Время (UTC), дата Ветер
(напр.,м/с)
 
Видим.   Явления Облачность Т
(С)
Тd
(С)
f
(%)
Тe
(С)
Тes
(С)
Комфортность P
(гПа)
Po
(гПа)
Тmin
(С)
Tmax
(С)
R
(мм)
R24
(мм)
S
(см)
01 12.08 штиль 0 26 км н/о +12.2 +11.3 94 +12 +12 1013.7 1002.8
02 12.08 СЗ 1 24 км н/о +12.1 +11.5 96 +12 +12 1013.5 1002.6
03 12.08 ЮЗ 1 18 км н/о +12.0 +11.4 96 +12 +12 1013.5 1002.6
04 12.08 СЗ 1 15 км н/о +12.4 +11.8 96 +12 +12 1013.6 1002.7
05 12.08 СЗ 2 12 км 9/1 2000 м
[Sc Ac trans]
+12.4 +11.7 95 +12 +12 1013.7 1002.9
06 12.08 З 1 14 км 9/1 240 м
[Cu hum Ac trans]
+12.5 +11.7 95 +13 +14 1013.7 1002.8 +11.6
07 12.08 З 2 12 км 9/4 300 м
[Cu Sc Ac cast]
+13.2 +12.2 94 +13 +13 1014.2 1003.4
08 12.08 СЗ 3 17 км 9/3 360 м
[Cu Sc Ac trans Ci fib]
+14.6 +12.1 85 +14 +16 1014.5 1003.6
09 12.08 СЗ 2 30 км в посл. час ливневой дождь 9/3 500 м
[Cu Sc Ac trans Ci fib]
+15.6 +10.9 74 +16 +19 1014.4 1003.7
10 12.08 СЗ 3 12 км слаб. ливневой дождь 9/9 600 м
[Cu Sc Ac trans]
+16.0 +11.7 76 +16 +17 1014.7 1004.0
11 12.08 СЗ 4 30 км в посл. час ливневой дождь 8/4 600 м
[Cu Sc Ac trans Ci fib]
+16.5 +11.0 70 +16 +19 1014.6 1003.8
12 12.08 СЗ 4 30 км {ливн. осадки} 9/8 750 м
[Cu Sc Ac trans Ci fib]
+17.8 +9.1 57 +18 +19 1014.6 1003.9 0.0
13 12.08 СЗ 4 30 км 9/4 750 м
[Sc diur, vesp Ac trans Ci sp]
+17.7 +7.8 52 +17 +21 1014.5 1003.8
14 12.08 СЗ 4 35 км 9/8 1050 м
[Cu Sc Ac trans Ci fib]
+17.6 +8.4 55 +17 +19 1015.1 1004.3
15 12.08 СЗ 7 40 км 4/3 1200 м
[Cu med, cong Ac trans Ci sp]
+18.1 +7.7 51 +17 +19 1015.0 1004.3
16 12.08 СЗ 6 30 км 4/3 1470 м
[Cu hum Ac trans Ci ing]
+18.7 +6.3 44 +19 +20 1015.1 1004.5
17 12.08 СЗ 6 35 км осадки на расстоянии 6/6 1350 м
[Sc diur, vesp Ac trans]
+18.2 +6.9 48 +18 +18 1015.4 1004.8
18 12.08 СЗ 3
{14}
35 км в посл. час ливневой дождь 5/3 1350 м
[Cu med, cong Ac trans Ci fib]
+16.0 +9.2 64 +16 +16 1016.2 1005.5 +19.2 0.0
19 12.08 З 4 30 км 4/1 1350 м
[Cu med, cong Ac trans]
+16.0 +9.2 64 +15 +15 1016.9 1006.1
20 12.08 З 3 30 км 3/0
[Ac trans]
+14.3 +8.0 66 +13 +13 1017.6 1006.8
21 12.08 З 3 30 км 1/1 1350 м
[Sc diur, vesp]
+12.5 +8.0 74 +11 +11 1018.2 1007.2
22 12.08 З 3 30 км 5/0
[Ac cuf]
+11.8 +8.4 80 +10 +10 1018.4 1007.5
23 12.08 З 3 30 км 6/1 1500 м
[Sc Ac trans]
+11.8 +8.6 81 +10 +10 1018.6 1007.7
00 13.08 З 3 30 км н/о +11.6 +8.9 83 +10 +10 1018.5 1007.5
01 13.08 ЮЗ 2 35 км н/о +10.9 +8.6 86 +10 +10 1018.2 1007.2
02 13.08 ЮЗ 3 30 км н/о +11.0 +9.0 87 +9 +9 1017.9 1006.9
03 13.08 ЮЗ 4 40 км н/о +10.9 +8.8 87 +9 +9 1017.7 1006.7
04 13.08 З 2 35 км н/о +10.3 +8.6 89 +9 +9 1017.7 1006.7
05 13.08 З 3 27 км н/о +10.6 +9.2 91 +9 +9 1017.7 1006.7
06 13.08 З 2 25 км 9/1 1200 м
[Sc Ac cast Cs]
+11.4 +10.1 92 +10 +10 1018.1 1007.1 +10.2
07 13.08 З 3 25 км 9/1 1200 м
[Sc Ac inh Ci sp]
+12.6 +10.5 87 +11 +12 1018.4 1007.5
08 13.08 З 3 30 км 4/1 400 м
[Cu hum Ac trans Cs]
+14.2 +10.6 79 +13 +17 1018.4 1007.6
09 13.08 З 4 40 км 1/1 600 м
[Cu hum Ac lent Ci fib]
+16.0 +8.3 60 +15 +21 1018.5 1007.7
10 13.08 З 4 50 км 3/3 1050 м
[Cu hum Ac trans]
+16.8 +7.6 55 +16 +21 1018.5 1007.7
11 13.08 З 3 50 км 4/4 1200 м
[Cu Sc]
+18.4 +7.7 50 +19 +25 1018.3 1007.6
12 13.08 СЗ 4 60 км 4/4 1350 м
[Cu Sc]
+18.1 +7.8 51 +18 +24 1018.2 1007.4
13 13.08 З 4 50 км 4/4 1500 м
[Sc diur, vesp]
+19.5 +6.9 44 +20 +25 1017.7 1007.0
14 13.08 З 4 45 км 5/5 1500 м
[Cu hum]
+19.8 +7.6 45 +21 +25 комфорт 1017.5 1006.8
15 13.08 З 4 50 км 3/3 1500 м
[Cu hum Ac lent]
+19.5 +7.6 46 +20 +25 1017.3 1006.6
16 13.08 З 4 40 км 4/4 1500 м
[Sc diur, vesp Ci fib]
+19.4 +8.4 49 +20 +23 1017.2 1006.5
17 13.08 ЮЗ 5 35 км 6/4 1320 м
[Sc diur, vesp Ac trans Cs]
+18.9 +9.1 53 +19 +20 1017.3 1006.6
18 13.08 ЮЗ 5 45 км 6/1 1350 м
[Sc diur, vesp Ac trans Ci fib]
+18.3 +10.9 62 +18 +18 1017.5 1006.8 +20.5
19 13.08 ЮЗ 4 40 км 9/1 1350 м
[Cu hum Ac trans Ci fib]
+16.6 +11.1 70 +16 +16 1017.9 1007.1
20 13.08 З 2 35 км 9/5 1500 м
[Sc Ac cast Cs]
+15.8 +11.4 75 +16 +16 1018.1 1007.3
21 13.08 ЮЗ 2 50 км 9/9 1500 м
[Sc Ac trans Ci fib]
+15.4 +11.7 79 +15 +15 1017.9 1007.1
22 13.08 ЮЗ 1 50 км 9/9 1500 м
[Sc Ac trans Ci fib]
+14.7 +11.7 82 +16 +16 1017.8 1007.0
23 13.08 Ю 2 40 км н/о +14.7 +12.6 87 +15 +15 1017.6 1006.8
00 14.08 Ю 2 30 км н/о +14.4 +12.6 89 +14 +14 1017.4 1006.5
01 14.08 Ю 2 30 км н/о +13.6 +12.3 92 +13 +13 1017.2 1006.3
02 14.08 ЮЗ 2 26 км н/о +13.4 +12.6 95 +13 +13 1016.8 1005.9
03 14.08 ЮЗ 2 20 км н/о +13.5 +12.8 96 +13 +13 1016.4 1005.5
04 14.08 ЮВ 2 17 км н/о +13.3 +12.7 96 +12 +12 1015.6 1004.7
05 14.08 ЮВ 2 10 км слаб. дождь 10/6 300 м
[Sc Ac trans]
+13.6 +13.1 97 +13 +13 1015.3 1004.4
06 14.08 ЮВ 4 15 км в посл. час дождь 10/8 330 м
[Frnb As op]
+14.0 +13.6 97 +13 +13 1014.7 1003.9 +13.1 0.4
07 14.08 Ю 4 4000 м слаб. дождь 10/8 210 м
[Frnb As op]
+14.8 +14.2 96 +13 +14 1014.5 1003.7
08 14.08 Ю 5 12 км в посл. час дождь 10/9 180 м
[Sc As op]
+13.6 +12.7 94 +12 +12 1014.1 1003.2
09 14.08 Ю 6 3500 м дождь {морось} 10/10 120 м
[St]
+13.9 +13.4 97 +12 +12 1013.6 1002.7
10 14.08 Ю 7 5000 м дождь 10/9 150 м
[Sc As op]
+13.5 +12.9 96 +11 +11 1012.8 1001.9
11 14.08 Ю 8 3500 м слаб. морось {дождь} 10/10 90 м
[Frnb]
+14.4 +13.9 97 +12 +12 1012.2 1001.4
12 14.08 Ю 7 3500 м дождь {морось} 10/10 120 м
[St]
+15.5 +15.0 97 +14 +14 1011.5 1000.7 9
13 14.08 Ю 7 3000 м слаб. дождь {морось} 10/10 150 м
[Frnb]
+15.8 +15.1 96 +14 +14 1010.9 1000.2
14 14.08 Ю 7 3500 м слаб. дождь {морось} 10/10 90 м
[Sc]
+16.0 +15.4 96 +14 +14 1010.3 999.6
15 14.08 ЮЗ 6 3200 м слаб. морось {дождь} 10/10 120 м
[Frnb]
+16.0 +15.6 97 +15 +15 1009.7 999.0
16 14.08 ЮЗ 6 4000 м слаб. дождь {морось} 10/10 120 м
[Frnb]
+16.3 +15.8 97 +15 +15 1008.9 998.2
17 14.08 ЮЗ 5 5000 м слаб. дождь 10/10 90 м
[Frnb]
+16.7 +16.3 97 +16 +16 1008.4 997.7
18 14.08 ЮЗ 3 22 км в посл. час дождь {морось} 10/10 90 м
[Frnb]
+17.2 +16.8 97 +17 +17 1007.9 997.3 11
19 14.08 ЮЗ 4 20 км 9/9 180 м
[Sc]
+17.6 +16.7 94 +17 +17 1007.9 997.3
20 14.08 ЮЗ 4 26 км 9/5 210 м
[Sc Cs]
+17.3 +16.3 94 +17 +17 1008.3 997.6
21 14.08 ЮЗ 3 30 км 9/6 450 м
[Sc Cs]
+16.8 +15.7 93 +17 +17 1008.4 997.7
22 14.08 ЮЗ 4 14 км н/о +16.8 +15.7 93 +16 +16 1008.5 997.8
23 14.08 ЮЗ 4 35 км н/о +16.6 +15.6 94 +16 +16 1008.9 998.3
00 15.08 З 5 14 км н/о +16.6 +15.0 90 +16 +16 1009.2 998.6
01 15.08 З 5 25 км н/о +15.8 +14.3 91 +15 +15 1009.3 998.6
02 15.08 З 5 27 км н/о +15.6 +14.0 90 +14 +14 1009.4 998.7
03 15.08 З 4 5000 м н/о +15.0 +14.3 96 +14 +14 1009.6 998.9
04 15.08 З 4 23 км н/о +14.9 +13.9 94 +14 +14 1009.6 998.8
05 15.08 З 5 30 км в посл. час дождь 6/6 600 м
[Sc]
+15.1 +13.5 90 +14 +14 1010.0 999.3
06 15.08 З 6 25 км в посл. час морось 8/6 360 м
[Sc Ci sp]
+15.1 +13.5 90 +13 +14 1010.7 999.9 +14.9 0.8
07 15.08 З 5 30 км 5/4 330 м
[Cu Sc Cc]
+15.8 +13.7 87 +15 +16 1011.2 1000.4
08 15.08 З 7 50 км 1/1 500 м
[Cu Sc Ac cast Cc]
+16.8 +12.7 77 +16 +17 1011.6 1000.9
09 15.08 З 7 50 км 1/1 840 м
[Cu hum Ci fib]
+17.8 +11.2 65 +17 +19 1012.2 1001.5
10 15.08 З 7
{13}
50 км 5/5 1000 м
[Cu Sc]
+18.8 +10.5 59 +19 +21 1012.7 1002.1
11 15.08 З 7 50 км 4/4 1110 м
[Cu Sc]
+18.9 +9.9 56 +19 +21 1013.2 1002.6
12 15.08 З 8-13
{13}
50 км 5/5 1170 м
[Cu Sc]
+19.7 +9.6 52 +20 +21 1013.7 1003.1
13 15.08 З 7
{13}
60 км 4/4 1200 м
[Cu Sc]
+20.3 +10.5 53 +21 +23 комфорт 1014.1 1003.5
14 15.08 З 8 60 км 5/4 1260 м
[Cu hum Ci fib]
+20.8 +11.4 55 +22 +24 комфорт 1014.4 1003.8
15 15.08 З 7 50 км 9/1 1140 м
[Cu hum Cs]
+20.1 +11.0 56 +21 +23 комфорт 1014.8 1004.1
16 15.08 З 7 45 км 9/1 1230 м
[Cu hum Cs]
+19.4 +10.7 57 +20 +21 1015.4 1004.8
17 15.08 З 7 35 км 9/1 840 м
[Cu hum As trans Ci sp]
+18.6 +11.3 62 +19 +19 1016.3 1005.6
18 15.08 З 6 40 км 5/1 960 м
[Cu hum As trans Ci fib]
+18.5 +11.1 62 +18 +19 1016.6 1005.9 +21.0
19 15.08 З 5 45 км 3/1 900 м
[Sc diur, vesp As trans Ci fib]
+17.8 +11.4 66 +17 +17 1016.6 1005.9
20 15.08 З 3 40 км 1/1 900 м
[Sc diur, vesp Ci fib]
+15.8 +11.4 75 +15 +15 1017.4 1006.6
21 15.08 ЮЗ 2 45 км 1/0
[Ci fib]
+14.5 +11.4 82 +14 +14 1017.8 1007.0
22 15.08 ЮЗ 1 35 км 1/0
[Ci fib]
+13.7 +11.3 85 +14 +14 1018.0 1007.1
23 15.08 З 2 29 км н/о +12.9 +10.8 87 +12 +12 1017.8 1006.9
00 16.08 ЮЗ 2 35 км н/о +12.1 +10.5 90 +11 +11 1017.4 1006.5
01 16.08 Ю 1 30 км н/о +12.2 +11.1 93 +12 +12 1017.2 1006.2
02 16.08 Ю 2 30 км н/о +11.0 +9.9 93 +10 +10 1016.8 1005.8
03 16.08 Ю 2 30 км н/о +11.6 +10.6 94 +10 +10 1016.4 1005.4
04 16.08 Ю 3 30 км н/о +12.4 +11.6 95 +11 +11 1015.7 1004.8
05 16.08 ЮВ 2 23 км н/о +13.1 +12.5 96 +13 +13 1015.2 1004.3
06 16.08 Ю 2 12 км 9/9 300 м
[Cu Sc]
+14.0 +13.4 96 +13 +13 1014.5 1003.6 +10.9
07 16.08 Ю 5 15 км 9/9 420 м
[Cu Sc]
+15.3 +13.7 90 +14 +14 1014.0 1003.3
08 16.08 ЮЗ 6 20 км 10/9 400 м
[Cu Sc As op]
+16.6 +13.7 83 +15 +15 1013.6 1002.9
09 16.08 Ю 5 20 км 10/9 500 м
[Cu Sc As op]
+16.7 +12.9 78 +16 +16 1013.1 1002.4
10 16.08 Ю 7 17 км слаб. дождь 10/9 600 м
[Cu Sc As op]
+16.9 +12.9 77 +16 +16 1012.1 1001.4
11 16.08 Ю 8 15 км слаб. дождь 10/9 570 м
[Cu Sc As op]
+16.6 +13.2 80 +15 +15 1011.6 1000.9
12 16.08 Ю 6
{13}
12 км слаб. дождь 10/10 450 м
[Sc]
+16.0 +13.8 87 +15 +15 1011.2 1000.5 0.0
13 16.08 Ю 7 30 км н/о +16.0 +14.1 88 +14 +14 1010.4 999.7
14 16.08 Ю 7
{13}
3400 м н/о +15.6 +14.4 93 +14 +14 1009.7 999.0
15 16.08 Ю 9-14
{14}
10 км н/о +15.8 +14.7 93 +14 +14 1008.8 998.1
16 16.08 Ю 9
{14}
5000 м н/о +15.9 +14.9 94 +14 +14 1007.8 997.1
17 16.08 Ю 9
{15}
10 км н/о +16.2 +15.0 93 +14 +14 1006.8 996.1
18 16.08 Ю 9-15
{15}
4000 м н/о +16.3 +15.5 95 +15 +15 1005.9 995.3 +17.2 8
19 16.08 Ю 8
{14}
5000 м н/о +16.3 +15.6 96 +15 +15 1005.2 994.5
20 16.08 Ю 7
{13}
2500 м н/о +16.4 +15.8 96 +15 +15 1004.7 994.1
21 16.08 ЮЗ 7 4400 м н/о +16.8 +16.2 96 +16 +16 1004.5 993.9
22 16.08 ЮЗ 6 9000 м н/о +16.8 +16.3 97 +16 +16 1004.0 993.3
23 16.08 ЮЗ 5 3200 м н/о +17.0 +16.6 97 +16 +16 1003.6 993.0
00 17.08 ЮЗ 4 50 км н/о +17.3 +16.6 96 +17 +17 1003.5 992.9 9
01 17.08 ЮЗ 5 5000 м н/о +17.1 +16.5 96 +16 +16 1003.4 992.8
02 17.08 ЮЗ 5 50 км н/о +16.7 +15.9 95 +16 +16 1003.6 992.9
03 17.08 З 4 30 км н/о +15.5 +13.6 88 +15 +15 1003.8 993.2
04 17.08 ЮЗ 2 23 км н/о +13.4 +12.4 94 +13 +13 1004.2 993.4
05 17.08 ЮЗ 3 22 км н/о +12.9 +11.9 94 +11 +11 1004.4 993.7
06 17.08 ЮЗ 3 24 км н/о +13.3 +12.6 96 +12 +12 1004.6 993.9 +12.6 9
07 17.08 ЮЗ 3 27 км н/о +14.9 +13.4 91 +14 +14 1005.1 994.4
08 17.08 ЮЗ 4 23 км н/о +15.4 +13.3 87 +14 +14 1005.2 994.5
09 17.08 ЮЗ 6 27 км н/о +17.3 +14.3 83 +17 +17 1005.3 994.6
10 17.08 ЮЗ 6 30 км н/о +18.1 +13.9 76 +18 +18 1005.4 994.8
11 17.08 З 5 30 км н/о +17.7 +12.5 72 +17 +17 1005.6 995.0
12 17.08 З 5 50 км н/о +19.6 +11.0 58 +21 +21 комфорт 1005.2 994.7
13 17.08 З 5 30 км н/о +20.3 +11.3 56 +22 +22 комфорт 1005.2 994.6
14 17.08 З 5 30 км н/о +20.3 +11.3 56 +22 +22 комфорт 1005.4 994.8
15 17.08 ЮЗ 6 >70 км н/о +21.4 +12.5 57 +24 +24 комфорт 1005.3 994.8
16 17.08 ЮЗ 7 30 км н/о +20.0 +12.5 62 +21 +21 комфорт 1005.1 994.5
17 17.08 ЮЗ 7 35 км н/о +20.2 +12.1 60 +22 +22 комфорт 1004.9 994.4
18 17.08 ЮЗ 6 45 км н/о +18.9 +12.6 67 +19 +19 1005.2 994.6 +21.8
19 17.08 ЮЗ 6 30 км н/о +17.1 +12.5 74 +16 +16 1005.1 994.5
20 17.08 ЮЗ 4 23 км н/о +16.1 +13.1 82 +15 +15 1005.6 994.9
21 17.08 ЮЗ 4 23 км н/о +15.3 +13.1 87 +14 +14 1005.6 994.9
22 17.08 ЮЗ 4 25 км н/о +15.2 +13.1 87 +14 +14 1005.5 994.8
23 17.08 Ю 4 26 км н/о +14.7 +12.8 88 +14 +14 1004.7 994.0
00 18.08 ЮЗ 3 30 км н/о +14.9 +12.4 85 +14 +14 1004.9 994.2
01 18.08 ЮЗ 2 23 км н/о +14.6 +12.9 90 +14 +14 1004.6 993.9
02 18.08 Ю 2 20 км н/о +14.5 +13.3 93 +14 +14 1003.9 993.2
03 18.08 Ю 3 26 км н/о +14.4 +13.2 92 +14 +14 1003.8 993.1
04 18.08 Ю 2 24 км н/о +14.1 +13.1 94 +13 +13 1003.1 992.4
05 18.08 ЮВ 1 26 км н/о +14.0 +12.9 93 +14 +14 1003.1 992.4
06 18.08 Ю 1 24 км н/о +14.0 +12.9 93 +14 +14 1002.9 992.2 +14.0
07 18.08 ЮЗ 2 28 км н/о +14.5 +13.1 91 +14 +14 1003.2 992.5
08 18.08 З 4 16 км н/о +14.0 +12.9 93 +12 +12 1003.9 993.2
09 18.08 ЮЗ 3 35 км н/о +14.6 +12.7 88 +14 +14 1004.4 993.7
10 18.08 З 5 45 км н/о +17.0 +12.8 76 +16 +16 1004.9 994.2
11 18.08 З 6 55 км н/о +17.7 +9.9 60 +17 +17 1004.9 994.4
12 18.08 З 6 50 км н/о +18.5 +9.7 57 +18 +18 1005.3 994.7 0.8
13 18.08 З 7 45 км н/о +19.6 +9.8 53 +20 +20 1005.7 995.1
14 18.08 З 7 60 км н/о +20.4 +10.8 54 +22 +22 комфорт 1006.3 995.7
15 18.08 ЮЗ 6 45 км н/о +19.7 +10.6 56 +21 +21 комфорт 1006.5 996.0
16 18.08 ЮЗ 5
{14}
35 км н/о +18.4 +12.4 68 +19 +19 1007.0 996.4
17 18.08 ЮЗ 6 30 км н/о +18.5 +11.7 65 +18 +18 1007.1 996.5
18 18.08 ЮЗ 5 20 км н/о +14.4 +13.0 91 +13 +13 1008.1 997.3 +20.8 4
19 18.08 ЮЗ 3 30 км н/о +15.2 +13.5 90 +15 +15 1008.2 997.5
20 18.08 ЮЗ 3 30 км н/о +14.0 +12.6 91 +13 +13 1008.8 998.1
21 18.08 ЮЗ 2 30 км н/о +13.0 +10.5 85 +13 +13 1009.6 998.8
22 18.08 ЮЗ 4 40 км н/о +13.3 +10.7 84 +12 +12 1010.3 999.4
23 18.08 Ю 3 30 км н/о +12.1 +10.4 89 +10 +10 1010.5 999.7
00 19.08 ЮЗ 4 25 км н/о +12.6 +10.9 89 +11 +11 1010.8 1000.0

 

Местоположение метеостанции Мидл Уоллоп (Великобритания): широта 51.15 долгота -1.57 высота над уровнем моря 91 м.

В архиве по умолчанию представлена погода в Мидл Уоллоп за последнюю неделю. Архивные данные за месяц целиком и за предыдущие месяцы, начиная с января 2011 года, Вы можете получить, выбрав интересующий диапазон дат из раскрывающегося списка и нажав кнопку "Ввод!".


*Определитесь, кто Вы:
робот инопланетянин человек

Внимание! Время в таблицах - всемирное. Для получения местного времени необходимо прибавить поправку, которая равна 0 ч.

Смотрите также архив погоды в соседних городах и на ближайших метеорологических станциях:

Погода в Боскомб Даун (Великобритания) (13 км)
Погода в Ларкхилле (Великобритания) (17 км)
Погода в Одихеме (Великобритания) (44 км)
Погода в Борнмуте (Великобритания) (45 км)
Погода в Ли-он-те-Соленте (Великобритания) (46 км)
Погода в Линхеме (Великобритания) (48 км)
Погода в Фарнборо (Великобритания) (58 км)
Погода на Острове Торвер (Великобритания) (58 км)
Погода в Бенсоне (Великобритания) (62 км)
Погода на Маяке St. Catherines (Великобритания) (66 км)

Пояснения к столбцам:

Ветер - указаны скорость ветра в м/с - средняя за 10 мин, порывы в срок и между сроками (в фигурных скобках) и направление, откуда дует ветер: С - северный, СВ - северо-восточный, В - восточный, ЮВ - юго-восточный, Ю - южный, ЮЗ - юго-западный, З - западный, СЗ - северо-западный.
Видимость - горизонтальная дальность видимости в метрах или километрах. При видимости от 1 до 10 км при отсутствии осадков обычно наблюдается дымка, при ухудшении видимости до 1 км и менее - туман. В сухую погоду видимость может ухудшаться дымом, пылью или мглою.
Явления - указаны атмосферные явления, наблюдавшиеся в срок или в последний час перед сроком; фигурными скобками обозначены явления, наблюдавшиеся между сроками (за 1-3 часа до срока); квадратными скобками обозначены град или гололедные отложения с указанием их диаметра в мм.
Облачность - указаны через наклонную черту общая и нижняя облачность в баллах и высота нижней границы облаков в метрах; квадратными скобками обозначены формы облаков: Ci - перистые, Cs - перисто-слоистые, Cc - перисто-кучевые, Ac - высококучевые, As - высокослоистые, Sc - слоисто-кучевые, Ns - слоисто-дождевые, Cu - кучевые, Cb - кучево-дождевые. Подробнее классификацию облаков см. в Атласе облаков (PDF).
T - Температура воздуха - температура, измеренная на высоте 2 м над землей.
Td - Температура точки росы - температура, при понижении до которой содержащийся в воздухе водяной пар достигнет насыщения.
f - Относительная влажность воздуха - влажноcть воздуха, измеренная на высоте 2 м над землей.
Te - Эффективная температура - температура, которую ощущает одетый по сезону человек в тени. Характеристика душности погоды. При расчете учитывается влияние влажности воздуха и скорости ветра на теплоощущения человека.
Tes - Эффективная температура на солнце - температура, которую ощущает человек, с поправкой на солнечный нагрев. Характеристика знойности погоды. Зависит от высоты солнца над горизонтом, облачности и скорости ветра. Ночью, в пасмурную погоду, а также при ветре 12 м/с и более поправка равна нулю.
P - Атмосферное давление - приведенное к уровню моря атмосферное давление.
Po - Атмосферное давление - измеренное на уровне метеостанции атмосферное давление.
Tmin - Минимальная температура - минимум температуры воздуха на высоте 2 м над землей.
Tmax - Максимальная температура - максимум температуры воздуха на высоте 2 м над землей.
R - Количество осадков - Количество выпавших осадков за период времени, мм. При наведении курсора мыши на число - период времени, за который выпало указанное количество осадков.
R24 - Количество осадков - Количество выпавших осадков за 24 часа, мм.
S - Снежный покров - Высота снежного покрова, см. При наведении курсора мыши на число - состояние снежного покрова и степень покрытия местности в баллах.